EW7772 Weather Reports


time (UTC)temp
C
wind
direction
speed
KPH
gust
KPH
rain 1hr
cm
rain 24hr
cm
rain mn
cm
humidity
%
barometer
mb
20260505090058 17 265 0.0 3.2 0.00 0.00 0.00 68 1008.1
20260505084551 16 306 0.0 6.4 0.00 0.00 0.00 68 1008.3
20260505083100 16 275 0.0 3.2 0.00 0.00 0.00 72 1008.3
20260505081552 16 279 0.0 3.2 0.00 0.00 0.00 72 1008.5
20260505080045 16 276 0.0 1.6 0.00 0.00 0.00 70 1008.5
20260505074546 16 275 0.0 4.8 0.00 0.00 0.00 70 1008.6
20260505073042 16 277 0.0 6.4 0.00 0.00 0.00 71 1008.6
20260505071542 16 288 0.0 4.8 0.00 0.00 0.00 70 1008.7
20260505070047 16 288 0.0 4.8 0.00 0.00 0.00 71 1008.8
20260505064552 15 288 0.0 1.6 0.00 0.00 0.00 74 1009.0
20260505063035 14 282 0.0 0.0 0.00 0.00 0.00 77 1009.1
20260505061540 13 282 0.0 0.0 0.00 0.00 0.00 78 1009.1
20260505060034 13 282 0.0 1.6 0.00 0.00 0.00 80 1009.0
20260505054533 12 281 0.0 0.0 0.00 0.00 0.00 84 1009.2
20260505053031 11 281 0.0 0.0 0.00 0.00 0.00 85 1009.2
20260505051531 11 281 0.0 0.0 0.00 0.00 0.00 86 1009.3
20260505041533 9 281 0.0 0.0 0.00 0.00 0.00 88 1009.5
20260505040028 9 281 0.0 0.0 0.00 0.00 0.00 88 1009.3
20260505034527 9 281 0.0 0.0 0.00 0.00 0.00 88 1009.3
20260505033024 10 281 0.0 0.0 0.00 0.00 0.00 87 1009.5
20260505031522 10 281 0.0 0.0 0.00 0.00 0.00 87 1009.6
20260505030020 10 281 0.0 0.0 0.00 0.00 0.00 86 1010.0
20260505024535 10 281 0.0 0.0 0.00 0.00 0.00 86 1010.2
20260505023015 10 281 0.0 0.0 0.00 0.00 0.00 85 1010.2
20260505021517 11 281 0.0 0.0 0.00 0.00 0.00 84 1010.3
20260505020010 11 281 0.0 0.0 0.00 0.00 0.00 83 1010.4
20260505014508 12 281 0.0 0.0 0.00 0.00 0.00 80 1010.6
20260505013013 12 281 0.0 0.0 0.00 0.00 0.00 80 1010.7
20260505011502 12 281 0.0 0.0 0.00 0.00 0.00 77 1010.8
20260505010058 13 281 0.0 0.0 0.00 0.00 0.00 76 1011.0
20260505004557 13 281 0.0 0.0 0.00 0.00 0.00 76 1010.9
20260505003058 13 281 0.0 0.0 0.00 0.00 0.00 75 1011.0
20260505001557 13 281 0.0 0.0 0.00 0.00 0.00 75 1011.0
20260504234605 14 281 0.0 0.0 0.00 0.00 0.00 73 1011.1
20260504233152 14 281 0.0 0.0 0.00 0.00 0.00 73 1011.3
20260504231559 14 281 0.0 0.0 0.00 0.00 0.00 72 1011.4
20260504230047 14 281 0.0 0.0 0.00 0.00 0.00 72 1011.5
20260504224547 14 281 0.0 0.0 0.00 0.00 0.00 71 1011.5
20260504223045 14 281 0.0 0.0 0.00 0.00 0.00 73 1011.5
20260504221551 15 281 0.0 0.0 0.00 0.00 0.00 73 1011.6
20260504220041 15 281 0.0 0.0 0.00 0.00 0.00 71 1011.7
20260504214540 15 281 0.0 0.0 0.00 0.00 0.00 71 1011.8
20260504213040 15 281 0.0 0.0 0.00 0.00 0.00 69 1011.9
20260504211548 15 281 0.0 0.0 0.00 0.00 0.00 68 1012.1
20260504210059 16 281 0.0 0.0 0.00 0.00 0.00 67 1012.4
20260504204547 16 281 0.0 0.0 0.00 0.00 0.00 66 1012.4
20260504203044 16 281 0.0 0.0 0.00 0.00 0.00 64 1012.5
20260504201545 17 281 0.0 0.0 0.00 0.00 0.00 62 1012.6
20260504200038 17 281 0.0 0.0 0.00 0.00 0.00 58 1012.6
20260504194558 17 281 0.0 3.2 0.00 0.00 0.00 58 1012.3
20260504193037 17 283 0.0 3.2 0.00 0.00 0.00 57 1012.3
20260504191545 17 282 0.0 3.2 0.00 0.00 0.00 56 1012.2
20260504190044 17 282 0.0 1.6 0.00 0.00 0.00 55 1011.9
20260504184540 18 282 0.0 3.2 0.00 0.00 0.00 54 1011.8
20260504183034 18 277 0.0 1.6 0.00 0.00 0.00 53 1011.7
20260504181550 18 261 0.0 4.8 0.00 0.00 0.00 52 1011.6
20260504180055 19 277 1.6 8.0 0.00 0.00 0.00 52 1011.5
20260504174534 19 273 0.0 6.4 0.00 0.00 0.00 51 1011.3
20260504173037 19 250 0.0 4.8 0.00 0.00 0.00 50 1011.1
20260504171533 20 290 0.0 1.6 0.00 0.00 0.00 48 1010.9